Regional Weather Roundup
Issued by NWS Upton, NY

Current Version | Previous Version | Graphics & Text | Print | Product List | Glossary Off
Versions: 1 2 3 4 5 6 7 8 9 10 11 12 13 14 15 16 17 18 19 20 21 22 23 24 25 26 27 28 29 30 31 32 33 34 35 36 37 38 39 40 41 42 43 44 45 46 47 48 49 50

722
ASUS41 KOKX 291304
RWROKX

REGIONAL WEATHER ROUNDUP
NATIONAL WEATHER SERVICE NEW YORK NY
900 AM EDT SUN MAY 29 2016

NOTE: "FAIR" INDICATES FEW OR NO CLOUDS BELOW 12,000 FEET WITH NO
SIGNIFICANT WEATHER AND/OR OBSTRUCTIONS TO VISIBILITY.

NYZ071-072-176-178-NJZ106-104-291400-
NEW YORK CITY METRO AREA


CITY           SKY/WX    TMP DP  RH WIND       PRES   REMARKS
CENTRAL PARK   SUNNY     77  57  50 CALM      30.17S
LAGUARDIA APRT MOSUNNY   80  62  54 S8        30.13F
KENNEDY INTL   PTSUNNY   72  55  55 S8        30.16S
NEWARK/LIBERTY PTSUNNY   79  58  48 SW8       30.14S
BRNX BOT. GARD NOT AVBL
TETERBORO      SUNNY     77  57  50 S5        30.12F
$$

NYZ177-179-078>081-291400-
LONG ISLAND NEW YORK

CITY           SKY/WX    TMP DP  RH WIND       PRES   REMARKS
FARMINGDALE    SUNNY     75  58  55 SW8       30.15F
ISLIP          PTSUNNY   74  59  59 SW9       30.15S
SHIRLEY        SUNNY     74  59  59 SW10      30.16F
RIVERHEAD      NOT AVBL
WESTHAMPTON    SUNNY     71  59  65 SW7       30.18R
EAST HAMPTON   FAIR      67  59  74 SW6       30.16S
MONTAUK POINT    N/A     70  60  70 SW6       30.18R
$$

NYZ052-065-067-291400-
HUDSON VALLEY

CITY           SKY/WX    TMP DP  RH WIND       PRES   REMARKS
WHITE PLAINS   SUNNY     76  61  59 SW5       30.14S
NEWBURGH       MOSUNNY   77  68  73 SW9       30.14S
MONTGOMERY     MOSUNNY   77  68  73 SW6       30.12F
POUGHKEEPSIE   MOSUNNY   79  66  64 SW7       30.11S
ALBANY         PTSUNNY   77  67  71 S8        30.11S
$$

NJZ001-105-106-008-010-013-015-019>022-104-291400-
NEW JERSEY

CITY           SKY/WX    TMP DP  RH WIND       PRES   REMARKS
NEWARK/LIBERTY PTSUNNY   79  58  48 SW8       30.14S
TETERBORO      SUNNY     77  57  50 S5        30.12F
CALDWELL       SUNNY     76  61  59 VRB6      30.14F
MORRISTOWN     MOSUNNY   77  61  57 SW9       30.15S
SOMERVILLE     SUNNY     75  63  66 SW3       30.13S
SUSSEX         SUNNY     75  65  70 SW6       30.14F
ANDOVER          N/A     75  62  64 VRB5      30.15S
TRENTON        SUNNY     74  61  63 SW8       30.15F
MILLVILLE      SUNNY     75  65  70 SW3       30.17F
ATLANTIC CITY  SUNNY     76  65  68 SW6       30.17S
WRIGHTSTOWN    NOT AVBL
TOMS RIVER     MOSUNNY  N/A N/A N/A SW7       30.17S
BELMAR         SUNNY     76  62  62 SW9       30.18S
$$

PAZ047>061-062-071-291400-
EASTERN PENNSYLVANIA

CITY           SKY/WX    TMP DP  RH WIND       PRES   REMARKS
PHILADELPHIA   CLOUDY    73  62  68 SW6       30.16F
ALLENTOWN      MOSUNNY   77  60  55 VRB3      30.15S
SCRANTON       SUNNY     78  66  66 CALM      30.14F
$$

CTZ002-004>006-009-010-012-RIZ004-006-007-MAZ004-011-015-291400-
SOUTHERN NEW ENGLAND
 IN CT

CITY           SKY/WX    TMP DP  RH WIND       PRES   REMARKS
BRADLEY INTL   PTSUNNY   76  63  64 E6        30.14S
HARTFORD       MOSUNNY   78  64  61 SE5       30.14R
DANBURY        SUNNY     77  66  68 W7        30.15S
WTRBRY/OXFORD  PTSUNNY   75  64  69 MISG      30.17R
BRIDGEPORT     SUNNY     72  56  57 SW7       30.14S
MERIDEN        SUNNY     75  59  57 S5        30.14S
NEW HAVEN      SUNNY     70  56  61 S7        30.15S
CHESTER        FAIR      73  59  60 CALM      30.16S
GROTON         SUNNY     69  60  73 S5        30.16R
WILLIMANTIC    SUNNY     76  63  64 SE6       30.16S

 IN RI

CITY           SKY/WX    TMP DP  RH WIND       PRES   REMARKS
PROVIDENCE     MOSUNNY   72  63  73 NE8       30.17S
BLOCK ISLAND   SUNNY     67  59  75 SW7       30.18S
WESTERLY       SUNNY     72  57  59 SE6       30.17S

 IN MA

CITY           SKY/WX    TMP DP  RH WIND       PRES   REMARKS
BOSTON         NOT AVBL
WORCESTER      CLOUDY    62  60  93 E8        30.20S FOG
WESTFIELD      SUNNY     77  64  64 VRB5      30.15S
PROVINCETOWN   SUNNY     61  56  83 N10       30.17R
NANTUCKET      SUNNY     66  59  78 W14       30.17S
$$

ANZ330-335-338-340-345-350-353-355-291400-
COASTAL MARINE OBSERVATIONS


STATION/POSITION TIME  SKY/WX   TEMP    WIND        PRES    VSBY  WAVE
                                AIR SEA DIR/SP/G                  HT/PER
                 (UTC)          (F)     (DEG/KT/KT) (MB)    (MI)  (FT/S)
NY HARB ENTRANCE 1150            60 57  200/  8/ 10 1021.1          2/ 7
20S FIRE ISLAND  1150            62 59  220/  8/  8 1021.6          3/ 9
GREAT SOUTH BAY  1200            66 69  240/ 10/ 14   N/A
23 SSW MONTAUK P 1150            61 57  230/ 12/ 14 1021.0          3/ 8
15 E BARNEGAT LI 1222               59                N/A           3/ 8
HUDSON CANYON    1150            61 58              1021.9          3/ 8
KINGS POINT      1200            72 60              1020.4
EXECUTION ROCKS  NOT AVBL
CENTRAL LI SOUND 1200            65     200/  4/  4   N/A           1
EASTERN LI SOUND 1200            60 54  150/  2/  4   N/A
ROBBINS REEF     1200            69     170/  6/  8 1020.3
$$


>>>>>>>>>>>>>>>>>>>>>>>>>>>> KEY <<<<<<<<<<<<<<<<<<<<<<<<<<<
>                                                          <
>     SKY/WX - SKY CONDITION/PRESENT WEATHER               <
>     TMP    - TEMPERATURE IN FAHRENHEIT                   <
>     DP     - DEWPOINT IN FAHRENHEIT                      <
>     RH     - RELATIVE HUMIDITY IN PERCENT                <
>     WIND   - DIRECTION AND SPEED IN MPH                  <
>     PRES   - MEAN SEA LEVEL PRESSURE IN INCHES OF HG     <
>     WCI    - WIND CHILL INDEX                            <
>     VSB    - VISIBILITY IN MILES                         <
>     HX     - HEAT INDEX                                  <
>     TC     - TEMPERATURE IN CELSIUS                      <
>     VRB    - VARIABLE WIND DIRECTION                     <
>                                                          <
>>>>>>>>>>>>>>>>>>>>>>>>>>>> KEY <<<<<<<<<<<<<<<<<<<<<<<<<<<






USA.gov is the U.S. government's official web portal to all federal, state and local government web resources and services.